map of CAY home
Great Circle Mapper logo
CAY - Airport
Location
City:  Cayenne, French Guiana
Name:Rochambeau
ICAO:SOCA
IATA:CAY

Details
Type:Airport (Aerodrome, Airfield)
Latitude:449'11"N (4.819722)
Longitude:5221'43"W (-52.361943)
Elevation:26 ft (8 m)
Variation:18.37W (WMM2015 magnetic declination)
-0.02 annual change
Runways:1
Longest:10499 × 148 ft (3200 × 45 m), paved

Time
Time Zone:UTC-3
Local Time:

Weather
METAR:SOCA 260130Z AUTO 23001KT CAVOK 23/23 Q1013 NOSIG
TAF:SOCA 251700Z 2518/2618 12010KT 9999 SCT032 PROB30
TEMPO 2518/2524 SHRA FEW012TCU
BECMG 2522/2523 VRB03KT
TEMPO 2602/2606 2000 TSRA SCT012CB BKN015TCU
FM261200 10010KT 9999 FEW020 PROB30
TEMPO 2615/2618 3000 SHRA FEW012TCU

Related Locations
Nearby:
Farthest:AMQ: 12350 mi / 19875 km
Ambon [Pattimura], ML, ID

Find:

   beyond  
but within

Other Information
Maps:
NOTAMs:
Links:
Sources:

  
flag of French Guiana   

Sectional Chart

Flight Planning
at skyvector.com

Satellite Image

Google Maps Satellite view

 

Copyright © 2004-2016 Karl L. Swartz. All rights reserved.
The Great Circle Mapper name and logo are trademarks of the Great Circle Mapper.
All other trademarks mentioned herein belong to their respective owners.
Please see credits for attibutions and further copyright information.

  Follow gcmap on Facebook Follow gcmap on Twitter Follow gcmap on Google+ GCmap on LinkedIn

hCard Microformat

Geo Microformat